Other Surface Observations
Issued by NWS

Current Version | Previous Version | Text Only | Print | Product List | Glossary On
Versions: 1 2 3 4 5 6 7 8 9 10 11 12 13 14 15 16 17 18 19 20 21 22 23 24 25 26 27 28 29 30 31 32 33 34 35 36 37 38 39 40 41 42 43 44 45 46 47 48 49 50
000
SXUS52 KTAE 250910
OSOTAE
OSOTAE
North Florida/South Alabama/Southwest Georgia Weather Roundup
National Weather Service Tallahassee Florida
500 AM EDT SUN SEP 25 2022

Note: "fair" indicates few or no clouds below 12,000 feet with no
significant weather and/or obstructions to visibility.

!FLZ017-115-028-034-025-251000
...North Florida...

CITY           SKY/WX    TMP DP  RH WIND       PRES   REMARKS
TALL INTL ARPT CLEAR     65  63  93 CALM      29.96F
FSU LOVE BLDG    N/A     68  64  88 CALM        N/A
APALACHICOLA   CLEAR     68  67  96 N3        29.94S
PERRY          NOT AVBL
CROSS CITY     CLEAR     62  60  96 CALM      29.96R
JACKSONVILLE   PTCLDY    65  62  90 CALM      29.95S
$$

!FLZ112-006-005-002-011-251000
...Florida Panhandle...

CITY           SKY/WX    TMP DP  RH WIND       PRES   REMARKS
MARIANNA       CLEAR     62  58  86 CALM      29.97S
BONIFAY        NOT AVBL
PANAMA CITY NW FAIR      67  63  87 NE3       29.95S
TYNDALL AFB    CLEAR     71  63  76 NE5       29.94S
TYND DRONE APT FAIR      68  64  86 NE7       29.92S
DE FUNIAK SPR  FAIR      65  60  82 CALM      29.97S
EGLIN AFB      MOCLDY    72  62  69 CALM      29.93S
DESTIN         PTCLDY    77  67  71 CALM      29.95F
HURLBURT       CLOUDY    70  65  86 N5        29.94S
CRESTVIEW      CLEAR     63  61  93 CALM      29.97F
PENSACOLA      CLEAR     74  72  93 N3        29.95F
$$

!ALZ063-066-251000
...South Alabama...

CITY           SKY/WX    TMP DP  RH WIND       PRES   REMARKS
DOTHAN         CLEAR     60  58  92 CALM      30.01F
OZARK CAIRNS   CLEAR     60  56  87 NE3       29.97S
FT RUCKER HELI CLEAR     58  57  97 CALM      29.97F
RUCKER HELI 3  FAIR      61  59  93 CALM      29.96F
RUCKER HELI 2  FAIR      60  59  99 CALM      29.95S
FLORALA APT    NOT AVBL
ANDALUSIA      NOT AVBL
TROY           CLEAR     61  57  87 CALM      29.99F
EUFALA         FAIR      59  57  93 CALM      29.99F
MOBILE         CLEAR     69  66  90 CALM      29.97F
$$

!GAZ120>161-251000
...Southwest and South Central Georgia...

CITY           SKY/WX    TMP DP  RH WIND       PRES   REMARKS
THOMASVILLE    FAIR      63  61  94 CALM      29.99F
BAINBRIDGE     CLEAR     62  60  91 CALM      29.98F
MOODY AFB      CLEAR     63  61  92 CALM      29.96F
VALDOSTA       CLEAR     63  61  93 CALM      29.98S
MOULTRIE       CLEAR     63  61  94 CALM      29.99F
BLAKELY        CLEAR     57  55  94 CALM      29.99S
ALBANY         CLEAR     61  58  90 CALM      30.00S
TIFTON         NOT AVBL
FITZGERALD     FAIR      61  59  95 CALM      30.00S
CORDELE        NOT AVBL
AMERICUS       NOT AVBL
HOMERVILLE     NOT AVBL
$$

!GMZ750-755-770-775-251000
...Coastal and Buoy Obs...

STATION/POSITION TIME  TEMP    WIND        PRES    VSBY  WAVE
                       AIR SEA DIR/SP/G                  HT/PER
                 (UTC) (F)     (DEG/KT/KT) (MB)    (MI)  (FT/S)
KEATON BEACH     0900   68      60/  5/  7 1014.4R
CEDAR KEY        0800   74      60/  8/  9 1014.2F
C TOWER          0900   81                 1013.6F
APALACHICOLA BUO 0850   82 85  110/ 12/ 16 1011.8R         3/ 4
PANAMA CITY BUOY 0850   82     120/  6/ 10 1013.8F         2/ 5
MOBILE BUOY      0850   83     110/  8/ 10 1013.9S         2/ 6
ORANGE BCH AL BU 0850   82 85  110/  2/  4 1013.7F         2/ 6
$$



USA.gov is the U.S. government's official web portal to all federal, state and local government web resources and services.